Powrót do katalogu

COSMOS 1275 DEB

AktywnyPO
NORAD 14556·DEBRIS·🇷🇺 Russia

Wystrzelony Jun 4, 1981 z Plesetsk Cosmodrome

Loading…

Następne Przeloty (najbliższe 24 godziny)

TLE

ŚwieżeSource: Space-Track

Epoka: Sep 14, 2026, 08:05 UTC

1 14556U 81053JL  26257.33730647  .00000704  00000-0  72557-3 0  9993
2 14556  83.0109 272.7372 0127550  68.1394 350.8782 13.71128195124328

Śledź COSMOS 1275 DEB w czasie rzeczywistym z AllMySat

Download on the App Store